Temperature
21 21 20 20 20 20 21 21 21 22 21 21 21 20 19 18 17 16 16 15 15 14 14 14 13 13 13 13 13 13 13 13 13 13 13 12 12 12 12 12 12 12 12 12
20 20 20 19 20 20 20 20 20 21 21 21 20 19 18 18 17 16 15 15 14 14 14 13 13 13 13 12 12 12 12 12 12 12 12 12 12 12 12 12 12 12 12 11
20 20 19 19 20 20 20 20 20 20 20 20 19 19 18 17 16 16 15 14 14 14 14 13 13 13 12 12 12 12 12 12 12 12 12 12 11 11 11 11 11 11 11 11
19 19 18 20 20 19 19 19 20 20 19 19 18 17 17 16 16 15 15 14 14 14 13 13 13 12 12 12 12 11 11 11 11 11 11 11 11 11 11 11 11 11 11 11
18 18 19 19 19 19 19 19 19 19 18 17 17 17 17 16 15 15 14 14 14 13 13 13 12 12 12 12 11 11 11 11 11 11 11 11 11 11 11 11 11 10 10 10
17 17 18 19 19 18 19 19 18 18 17 17 16 18 18 15 14 14 14 13 13 13 13 12 12 12 12 11 11 11 11 11 11 11 11 11 11 10 10 10 10 10 10 10
17 17 18 19 17 17 18 19 17 17 17 16 16 17 15 14 14 14 13 13 13 13 12 12 12 12 11 11 11 11 11 11 10 10 10 10 10 10 10 10 10 10 10 10
17 17 17 17 16 17 18 17 16 16 16 15 15 14 14 13 13 13 13 13 12 12 12 12 11 11 11 11 11 11 10 10 10 10 10 10 10 10 9 9 9 9 9 9
17 17 17 16 16 16 15 16 15 15 15 14 14 13 13 13 13 13 12 12 12 12 12 11 11 11 11 11 10 10 10 10 10 10 10 10 9 9 9 9 9 9 9 9
16 16 15 14 14 14 14 14 14 14 13 13 13 13 12 12 12 12 12 12 12 11 11 11 11 10 10 10 10 10 10 10 9 9 9 9 9 9 9 9 9 9 8 8
15 16 14 14 13 13 13 13 13 13 13 13 12 12 12 12 12 12 11 11 11 11 11 11 10 10 10 10 10 9 9 9 9 9 9 9 9 9 9 8 8 8 8 8
16 16 15 15 13 13 13 13 12 12 12 12 12 12 12 11 11 11 11 11 10 10 10 10 10 10 10 10 10 9 9 9 9 9 9 8 8 8 8 8 8 8 8 8
14 13 13 13 12 12 12 12 12 12 12 11 11 11 11 11 11 10 10 10 10 10 10 10 10 10 9 9 9 9 9 9 9 8 8 8 8 8 8 8 8 8 8 8
12 12 12 12 11 11 11 11 11 11 11 11 11 10 10 10 10 10 10 10 10 9 10 10 9 9 9 9 9 9 9 8 8 8 8 8 8 8 8 7 7 7 7 7
11 11 11 11 11 11 11 11 10 10 10 10 10 10 10 10 9 9 9 9 9 9 9 9 9 9 9 9 9 8 8 8 8 8 8 8 8 7 7 7 7 7 7 7
11 11 10 10 10 10 10 10 10 10 10 10 9 9 9 9 9 9 9 9 9 9 9 9 9 9 9 8 8 8 8 8 8 8 8 7 7 7 7 7 6 6 6 6
10 10 10 10 10 10 10 10 10 10 9 9 9 9 9 8 8 8 8 8 8 8 8 8 8 8 8 8 8 8 7 7 7 7 7 7 7 7 6 6 6 6 6 6
10 10 10 10 10 9 9 9 9 9 9 9 8 8 8 8 8 8 8 8 8 8 8 8 8 8 7 7 7 7 7 7 7 7 6 6 6 6 6 6 6 6 6 6
9 9 9 9 9 9 9 9 9 9 9 8 8 8 8 7 7 7 7 7 7 7 7 7 7 7 7 7 7 7 6 6 6 6 6 6 6 5 5 5 5 5 5 5
9 9 9 9 9 9 8 8 8 8 8 8 8 7 7 7 7 7 7 7 7 7 7 7 7 7 7 7 7 6 6 6 6 6 5 5 5 5 5 5 5 5 5 5
8 8 8 8 8 8 8 8 8 8 7 7 7 7 7 7 6 6 6 6 6 6 6 6 6 6 6 6 6 6 6 6 5 5 5 5 4 4 4 4 4 4 4 4
8 8 8 8 8 7 7 7 7 7 7 7 7 7 6 6 6 6 6 6 6 6 6 6 6 6 6 6 6 6 5 5 5 5 5 4 4 4 4 4 4 4 4 4
8 7 7 7 7 7 7 7 7 7 7 6 6 6 6 6 6 6 5 5 5 5 5 5 5 5 5 5 5 5 5 5 5 4 4 4 4 4 3 3 3 3 3 3
7 7 7 7 7 6 6 6 6 6 6 6 6 6 6 6 5 5 5 5 5 5 5 5 5 5 5 5 5 5 5 4 4 4 4 4 4 3 3 3 3 3 3 3
6 6 6 6 6 6 6 6 6 6 5 5 5 5 5 5 5 5 5 4 4 4 4 4 4 4 4 4 4 4 4 4 4 4 4 3 3 3 3 3 2 3 3 3
6 6 6 6 6 6 6 5 5 5 5 5 5 5 5 4 4 4 4 4 4 4 4 4 4 4 4 4 4 4 4 4 4 3 3 3 3 2 2 2 2 2 2 2
5 5 5 5 5 5 5 5 5 5 5 5 4 4 4 4 4 4 4 4 4 4 3 3 3 3 3 3 3 3 3 3 3 3 3 3 2 2 2 2 2 2 2 2
Wind_Speed
9 7 6 8 9 10 12 12 12 11 10 9 6 5 4 2 1 1 1 1 2 2 2 2 2 2 2 1 2 2 2 2 1 1 1 1 1 1 2 2 3 3 3 3
8 7 7 9 10 11 12 12 13 13 11 7 5 3 3 2 1 2 2 2 2 2 2 2 3 2 2 1 2 2 2 2 1 2 2 2 2 2 1 2 2 2 2 2
8 6 7 10 10 10 10 9 10 11 9 5 5 4 4 3 2 3 2 2 2 2 2 3 3 2 2 2 2 1 1 1 2 2 2 2 2 2 2 2 2 2 2 3
6 6 9 4 2 6 8 8 8 8 6 5 5 4 4 3 3 3 3 3 3 3 3 3 2 2 2 2 2 2 2 2 2 2 2 2 2 2 3 2 2 2 3 3
6 8 9 6 4 5 7 7 5 6 5 4 2 3 2 0 2 2 3 3 3 3 3 2 2 3 3 3 2 2 2 2 2 2 2 2 3 3 3 2 2 3 3 3
7 8 7 3 2 3 5 7 3 4 4 3 3 5 2 1 2 2 2 2 2 2 2 2 2 3 4 4 4 3 3 3 3 3 3 3 3 3 3 3 3 3 3 4
11 10 8 2 2 4 6 2 1 3 3 4 5 4 3 2 2 2 2 2 2 2 2 2 2 3 4 4 4 3 3 3 2 3 3 3 3 2 2 3 3 3 4 4
9 10 8 3 5 5 3 1 1 2 3 4 4 3 2 2 2 2 2 2 2 2 2 2 2 3 4 4 3 3 3 3 3 3 3 2 2 2 3 3 3 3 4 3
7 6 2 3 4 3 2 3 3 3 3 3 3 3 3 3 3 3 3 2 2 2 2 2 3 4 4 4 3 3 3 3 3 3 3 3 3 3 3 3 3 3 4 4
8 9 7 7 7 6 5 5 4 4 3 4 4 4 4 3 3 3 3 3 2 3 3 3 3 4 4 3 3 3 4 3 3 3 3 4 3 3 3 4 4 4 4 4
11 10 8 8 8 7 6 5 4 4 4 4 4 5 5 4 4 4 3 3 3 3 3 3 3 4 3 3 3 4 4 4 4 4 3 3 3 3 4 3 4 4 5 5
10 9 8 8 7 6 6 6 5 4 4 4 4 5 5 5 4 4 4 3 3 3 3 3 3 3 3 3 4 5 4 4 4 3 3 3 3 3 2 3 3 4 5 5
10 9 8 8 7 7 6 6 5 5 5 4 4 4 4 4 4 4 4 3 3 3 3 3 3 3 3 3 4 5 5 4 4 4 4 4 3 4 3 3 4 4 4 5
9 9 10 9 8 7 6 6 5 5 4 4 3 3 3 4 4 4 4 4 3 3 3 2 2 3 3 3 4 5 5 4 4 4 4 4 4 4 4 4 4 3 3 4
11 10 10 9 7 6 5 5 5 5 4 4 3 3 3 3 3 3 4 3 3 3 3 3 2 3 3 3 3 4 4 3 3 3 3 4 4 4 4 4 4 4 3 3
8 8 8 8 8 7 7 7 7 6 5 5 4 4 3 3 3 3 4 3 3 3 3 3 3 3 3 3 3 3 3 3 3 3 3 3 3 3 4 4 4 4 4 4
8 8 7 8 8 8 8 7 7 6 6 6 5 4 3 3 3 4 4 3 3 3 3 4 4 3 3 3 3 3 3 2 3 3 3 3 3 4 4 4 4 4 4 3
9 8 8 8 7 7 7 7 6 6 6 5 4 4 4 5 5 4 4 4 3 3 3 4 4 3 3 3 3 3 3 2 3 3 3 3 4 4 4 4 5 5 5 3
6 6 6 6 6 7 6 6 6 6 5 5 5 5 5 5 5 4 4 4 4 4 4 4 3 3 3 3 3 3 3 3 3 3 3 3 4 4 4 4 4 5 5 4
4 4 4 4 4 5 5 5 5 5 5 5 5 5 5 5 4 4 4 5 4 4 4 3 3 3 3 3 3 3 3 3 3 3 3 3 4 4 4 4 4 4 4 4
3 3 3 3 4 4 4 4 5 5 4 5 5 5 4 4 4 4 4 4 4 4 3 3 3 3 3 3 3 3 3 3 3 3 3 3 3 4 4 4 4 4 4 4
3 3 3 3 3 3 3 3 4 4 4 4 4 4 4 4 4 4 4 4 4 3 3 3 3 3 3 4 4 4 4 4 4 3 4 4 4 4 4 4 4 4 4 4
3 3 3 3 3 3 3 3 4 4 4 4 4 4 4 4 3 3 4 3 3 3 3 4 3 4 4 4 4 4 4 5 4 4 4 4 4 4 4 4 4 4 4 4
3 3 3 3 2 3 3 3 3 3 3 3 3 4 4 3 3 3 3 3 3 3 4 4 4 5 5 4 4 4 4 4 4 4 4 4 4 4 4 4 4 4 5 5
3 3 3 3 3 3 3 2 2 2 2 2 3 3 3 3 3 3 3 3 3 3 4 3 4 4 4 4 4 4 4 4 4 4 4 4 4 4 4 4 4 4 5 5
3 3 3 4 3 3 2 2 3 2 2 2 2 2 2 2 3 3 3 4 4 4 3 3 3 3 3 4 4 4 4 4 4 4 4 4 4 4 4 4 5 5 5 4
3 3 3 3 3 3 3 3 3 3 3 3 3 3 2 3 2 3 3 3 3 3 3 3 3 3 3 3 3 3 3 3 3 3 3 3 4 4 4 4 4 4 4 4
Wind_Direction
262 264 249 251 247 235 239 251 258 265 269 276 282 293 302 299 285 247 219 211 206 213 204 197 201 210 208 202 194 194 191 204 213 211 208 222 222 236 241 240 246 242 244 246
253 241 244 253 251 245 246 250 254 262 266 276 282 285 286 282 255 238 233 230 218 222 215 212 207 209 203 204 202 201 204 210 213 218 206 212 218 219 226 236 242 248 245 244
254 244 253 250 240 234 238 241 248 257 267 267 263 271 281 278 249 245 244 239 237 234 230 225 213 203 206 203 196 199 222 242 235 219 204 203 206 206 217 223 227 241 243 242
256 252 246 246 207 230 239 248 252 259 264 259 264 272 278 270 263 260 260 246 242 242 233 230 215 208 208 195 192 202 216 248 236 215 207 202 203 212 228 237 230 240 251 252
239 252 262 250 225 218 234 250 248 251 252 264 278 250 240 279 293 277 271 253 245 240 230 224 214 212 208 204 208 214 227 247 233 216 213 214 216 224 231 236 242 249 254 259
231 246 251 241 176 211 240 247 222 231 231 234 223 250 256 330 304 288 284 268 254 237 227 222 224 216 217 220 222 225 230 234 234 222 219 220 227 232 232 234 246 255 256 261
234 243 255 251 166 191 227 273 150 221 229 226 239 280 307 311 309 306 298 289 266 233 227 223 228 226 230 232 233 230 231 228 224 217 219 221 231 236 243 244 250 257 262 265
227 235 243 160 170 213 274 2 217 244 249 249 263 295 301 293 297 312 314 299 273 252 244 222 222 231 240 245 244 232 222 217 220 215 212 219 228 242 252 256 258 262 268 274
231 245 291 188 219 260 290 272 278 270 263 256 261 268 277 281 283 292 304 294 272 260 252 235 225 233 248 252 243 229 223 224 225 228 220 221 231 241 250 253 259 265 267 270
248 252 257 251 256 260 255 266 276 274 264 252 253 258 268 275 279 282 290 290 276 261 257 252 240 240 251 251 235 222 224 229 231 233 239 233 232 241 251 256 257 262 265 266
253 257 263 257 254 256 259 258 261 264 264 259 254 254 261 269 275 281 283 282 270 261 258 256 250 242 242 243 232 229 229 230 234 235 239 247 243 251 257 262 267 262 266 269
254 255 260 263 256 257 256 251 247 247 259 262 255 255 264 271 277 282 283 284 276 269 265 261 255 253 243 237 238 237 236 240 241 239 241 247 253 256 256 250 254 258 267 273
266 273 277 273 268 264 256 252 249 246 247 257 263 259 261 268 272 278 280 279 275 269 268 262 256 256 251 240 240 242 244 245 244 241 239 243 252 260 269 265 234 239 246 259
258 258 264 264 263 258 251 248 246 247 247 249 255 254 256 266 269 272 279 284 279 273 272 267 257 262 263 249 243 247 251 251 249 248 246 246 252 260 266 270 280 282 251 237
252 256 259 261 255 252 249 240 235 239 245 244 239 237 244 256 265 276 285 290 285 279 281 284 279 275 271 258 251 249 250 250 248 251 251 250 251 258 265 269 271 275 281 267
257 258 249 242 240 240 239 236 237 242 241 237 234 234 238 245 262 275 280 281 277 276 281 281 282 281 268 254 249 248 248 251 249 251 251 253 252 255 263 270 272 272 277 282
243 243 238 236 237 237 238 239 239 236 233 232 231 232 235 241 254 267 273 271 267 272 276 277 283 282 263 248 243 244 247 244 232 243 250 257 263 266 265 267 269 273 279 282
241 242 240 239 238 239 241 243 240 232 228 226 222 225 231 238 247 258 264 266 272 285 289 287 286 277 263 253 246 247 246 249 247 249 255 260 266 268 268 267 267 270 277 271
239 239 242 242 238 235 236 237 234 229 222 216 218 226 235 243 251 255 255 257 264 273 281 283 290 273 264 262 255 243 245 250 255 258 258 259 261 267 270 272 273 269 271 272
248 242 244 247 238 234 236 233 224 217 214 211 214 224 235 245 254 254 253 255 259 267 272 276 272 269 264 259 252 246 245 248 252 257 261 263 263 266 270 274 279 279 273 270
257 255 253 244 241 243 240 230 216 212 211 211 215 224 237 247 250 249 252 260 266 270 272 272 266 266 266 269 247 246 244 246 250 255 256 258 261 263 266 271 275 279 279 275
265 261 252 241 238 246 243 229 214 208 209 216 222 229 238 244 247 253 255 260 263 256 260 261 259 265 273 271 249 245 244 246 249 252 254 256 257 259 263 268 271 275 278 280
263 255 248 240 239 249 247 232 218 213 213 218 225 233 238 243 243 246 259 265 268 265 267 262 264 270 271 259 248 243 241 241 244 248 251 254 257 259 263 265 267 271 275 279
262 253 250 247 237 232 235 239 236 230 227 231 238 243 245 250 256 256 264 255 259 265 263 255 254 261 261 252 248 245 241 239 241 247 251 255 257 259 262 263 264 268 271 275
265 253 238 234 237 243 241 238 239 238 238 247 254 254 255 255 260 265 264 259 252 254 262 261 257 259 251 250 248 249 249 244 246 252 254 254 258 260 261 264 267 269 270 272
262 257 248 246 251 249 239 232 236 240 243 254 264 266 267 265 262 265 264 264 263 260 263 266 262 254 252 255 254 253 253 249 245 247 252 255 256 259 263 263 268 270 271 272
260 256 252 254 249 239 232 233 241 248 247 246 259 270 270 271 270 267 268 267 264 258 259 261 259 255 252 252 253 253 255 256 252 251 252 255 259 260 263 267 270 269 269 270
Height
1515 1515 1517 1517 1518 1518 1518 1516 1517 1513 1514 1512 1514 1516 1518 1519 1519 1520 1520 1521 1521 1522 1522 1522 1522 1522 1522 1522 1522 1522 1523 1523 1523 1523 1523 1523 1523 1523 1523 1523 1523 1524 1524 1524
1517 1516 1517 1518 1516 1516 1516 1515 1514 1513 1513 1512 1514 1516 1516 1517 1518 1518 1519 1519 1519 1520 1520 1520 1520 1520 1520 1520 1520 1520 1520 1520 1520 1520 1520 1520 1521 1521 1521 1520 1521 1521 1521 1521
1516 1514 1516 1515 1510 1511 1512 1511 1511 1512 1510 1511 1513 1514 1515 1516 1516 1516 1517 1517 1517 1517 1517 1517 1518 1518 1518 1518 1518 1517 1518 1517 1517 1517 1517 1517 1518 1518 1518 1518 1518 1518 1518 1518
1517 1517 1521 1508 1507 1508 1509 1509 1509 1509 1510 1511 1512 1514 1514 1515 1515 1515 1515 1515 1515 1516 1515 1516 1516 1516 1516 1516 1516 1515 1515 1515 1514 1514 1515 1515 1515 1515 1515 1515 1515 1515 1515 1515
1517 1516 1510 1507 1506 1507 1508 1507 1508 1508 1510 1511 1512 1512 1512 1513 1513 1514 1514 1513 1513 1514 1514 1513 1513 1513 1513 1513 1513 1513 1512 1512 1512 1512 1512 1512 1513 1513 1513 1513 1513 1513 1513 1512
1516 1518 1513 1504 1504 1506 1508 1506 1506 1508 1509 1510 1511 1509 1509 1512 1512 1511 1511 1511 1511 1511 1511 1511 1511 1511 1511 1511 1510 1510 1510 1510 1510 1510 1510 1510 1510 1510 1510 1510 1510 1510 1510 1509
1513 1512 1504 1503 1505 1507 1510 1505 1506 1507 1508 1509 1509 1509 1510 1510 1510 1510 1509 1509 1508 1508 1508 1508 1508 1508 1508 1508 1507 1507 1507 1507 1507 1507 1508 1508 1508 1508 1507 1507 1507 1507 1507 1506
1509 1511 1507 1504 1505 1505 1504 1505 1506 1506 1507 1508 1508 1508 1508 1508 1508 1508 1507 1507 1506 1506 1506 1505 1505 1505 1505 1505 1505 1505 1505 1505 1505 1505 1505 1506 1505 1505 1505 1505 1504 1504 1504 1503
1503 1503 1502 1503 1503 1504 1504 1505 1505 1505 1506 1506 1506 1506 1506 1506 1506 1505 1505 1504 1504 1503 1503 1503 1502 1502 1502 1502 1502 1502 1502 1502 1502 1502 1503 1503 1503 1503 1502 1502 1502 1501 1501 1500
1501 1500 1501 1502 1502 1502 1503 1503 1504 1504 1504 1504 1504 1504 1504 1504 1503 1503 1503 1502 1501 1500 1500 1500 1500 1499 1499 1499 1499 1499 1499 1500 1500 1500 1500 1500 1500 1500 1500 1499 1498 1498 1497 1496
1498 1497 1499 1499 1500 1500 1500 1500 1500 1501 1501 1501 1501 1501 1502 1501 1501 1500 1500 1499 1498 1498 1497 1496 1497 1497 1497 1497 1497 1497 1497 1497 1498 1497 1497 1497 1497 1496 1496 1496 1495 1494 1494 1493
1492 1493 1495 1495 1496 1497 1497 1497 1497 1497 1498 1498 1499 1498 1498 1498 1498 1497 1496 1496 1495 1495 1494 1494 1494 1494 1494 1494 1494 1495 1495 1494 1494 1494 1494 1493 1493 1493 1492 1491 1490 1490 1489 1489
1491 1491 1492 1492 1493 1493 1494 1494 1494 1495 1495 1495 1495 1495 1495 1495 1494 1494 1493 1493 1492 1492 1491 1491 1491 1491 1491 1491 1491 1491 1491 1491 1491 1491 1491 1490 1489 1489 1488 1487 1486 1485 1484 1484
1488 1489 1488 1488 1489 1489 1490 1490 1491 1491 1492 1492 1492 1492 1492 1491 1491 1490 1490 1490 1489 1489 1489 1489 1488 1488 1488 1488 1488 1488 1487 1487 1487 1487 1487 1486 1486 1485 1484 1483 1482 1481 1480 1479
1484 1484 1484 1484 1485 1485 1486 1487 1487 1487 1488 1488 1488 1488 1488 1488 1487 1487 1487 1487 1486 1486 1486 1485 1485 1485 1485 1484 1484 1484 1484 1483 1483 1483 1483 1482 1482 1481 1480 1479 1478 1477 1476 1475
1478 1479 1480 1480 1480 1481 1482 1482 1483 1483 1484 1484 1484 1484 1484 1484 1484 1484 1484 1484 1483 1483 1482 1482 1482 1481 1481 1481 1481 1480 1480 1479 1479 1479 1479 1478 1478 1477 1476 1475 1473 1472 1472 1471
1474 1474 1475 1475 1476 1477 1478 1478 1479 1479 1479 1480 1480 1480 1481 1481 1481 1480 1480 1480 1480 1480 1479 1479 1478 1478 1478 1477 1477 1477 1476 1476 1475 1475 1475 1474 1473 1473 1472 1470 1469 1468 1468 1467
1470 1471 1471 1472 1472 1472 1473 1474 1474 1475 1475 1476 1476 1477 1477 1477 1477 1476 1476 1476 1476 1476 1475 1475 1475 1474 1474 1474 1474 1473 1473 1472 1472 1471 1471 1470 1469 1469 1468 1466 1465 1465 1464 1463
1466 1467 1467 1468 1468 1468 1469 1469 1470 1471 1471 1472 1473 1473 1473 1473 1473 1473 1472 1472 1472 1471 1471 1471 1471 1470 1470 1470 1470 1469 1469 1469 1468 1467 1467 1466 1465 1465 1464 1463 1462 1461 1460 1459
1463 1463 1463 1464 1464 1464 1465 1465 1466 1466 1467 1468 1469 1469 1469 1469 1469 1469 1469 1468 1468 1467 1467 1467 1467 1466 1466 1466 1466 1465 1465 1464 1464 1463 1463 1462 1461 1461 1460 1459 1458 1457 1456 1455
1460 1460 1460 1460 1460 1461 1461 1461 1462 1463 1464 1465 1465 1465 1466 1466 1465 1465 1464 1464 1463 1463 1463 1463 1462 1462 1462 1462 1461 1461 1461 1460 1460 1459 1459 1458 1457 1457 1456 1455 1455 1454 1453 1452
1458 1458 1458 1458 1458 1458 1458 1459 1459 1460 1460 1461 1462 1462 1462 1462 1461 1461 1461 1460 1460 1459 1459 1459 1458 1458 1458 1457 1457 1456 1456 1456 1455 1455 1454 1454 1453 1453 1452 1452 1451 1450 1449 1448
1457 1456 1456 1456 1455 1455 1456 1456 1457 1457 1457 1457 1458 1458 1458 1458 1458 1457 1456 1457 1456 1455 1455 1454 1454 1454 1453 1453 1452 1452 1451 1451 1450 1450 1450 1449 1449 1449 1448 1448 1447 1446 1445 1444
1454 1454 1454 1454 1453 1453 1453 1453 1454 1454 1454 1455 1455 1455 1455 1454 1454 1454 1453 1452 1452 1451 1451 1450 1450 1449 1449 1448 1447 1447 1446 1446 1446 1446 1445 1445 1445 1444 1444 1443 1442 1441 1440 1440
1451 1451 1451 1451 1451 1451 1451 1451 1451 1451 1451 1452 1452 1452 1451 1451 1450 1450 1449 1449 1448 1447 1446 1446 1445 1445 1444 1443 1443 1442 1442 1442 1441 1441 1441 1440 1440 1440 1439 1439 1438 1437 1436 1435
1449 1449 1449 1449 1449 1448 1448 1448 1448 1448 1448 1448 1448 1448 1448 1447 1446 1446 1445 1445 1444 1443 1442 1442 1441 1440 1440 1439 1439 1438 1437 1437 1437 1436 1436 1436 1436 1435 1435 1434 1433 1432 1431 1430
1446 1446 1446 1445 1445 1445 1445 1445 1445 1445 1445 1445 1445 1444 1444 1443 1443 1442 1441 1440 1440 1439 1438 1438 1437 1436 1436 1435 1434 1433 1433 1432 1432 1432 1432 1431 1431 1431 1430 1429 1429 1428 1426 1425